Regional Weather Roundup
Issued by NWS

Home | Current Version | Previous Version | Graphics & Text | Print | Product List | Glossary On
Versions: 1 2 3 4 5 6 7 8 9 10 11 12 13 14 15 16 17 18 19 20 21 22 23 24 25 26 27 28 29 30 31 32 33 34 35 36 37 38 39 40 41 42 43 44 45 46 47 48 49 50
000
ASUS43 KLSX 211557
RWRMO

WEATHER SUMMARY FOR MISSOURI
NATIONAL WEATHER SERVICE SPRINGFIELD MO
1100 AM CDT THU SEP 21 2017

NOTE: "FAIR" INDICATES FEW OR NO CLOUDS BELOW 12,000 FEET WITH NO
       SIGNIFICANT WEATHER AND/OR OBSTRUCTIONS TO VISIBILITY.
       CURRENT SKY AND/OR WEATHER CONDITIONS ARE NOT AVAILABLE FOR
       CHILLICOTHE AND FARMINGTON.

MOZ001>031-035>038-043-044-053-054-211700-
...NORTHERN AND WESTERN MISSOURI...

CITY           SKY/WX    TMP DP  RH WIND       PRES   REMARKS
KANSAS CTY INT MOSUNNY   83  73  72 S13       29.93S
LEE`S SUMMIT   MOSUNNY   83  73  72 S14       29.95S
ST JOSEPH      SUNNY     86  74  67 S14       29.90S HX  94
CHILLICOTHE      N/A     77  71  82 E9        29.99R
KIRKSVILLE     CLOUDY    72  68  88 E12       30.03F

$$
MOZ066>068-077>081-088>096-101>105-211700-
...SOUTHWEST MISSOURI...

CITY           SKY/WX    TMP DP  RH WIND       PRES   REMARKS
SPRINGFIELD    SUNNY     84  73  69 S10       30.02S HX  90
JOPLIN         SUNNY     84  75  74 S16G22    29.98S HX  92
BRANSON        MOSUNNY   86  70  58 SE10      30.05F HX  90

$$
MOZ032>034-039>042-045>050-055>058-069>072-211700-
...CENTRAL MISSOURI...

CITY           SKY/WX    TMP DP  RH WIND       PRES   REMARKS
COLUMBIA       NOT AVBL
JEFFERSON CITY SUNNY     84  72  67 SE7       30.01S
ROLLA          SUNNY     86  72  62 S8        30.06R HX  92
SEDALIA        SUNNY     86  75  69 S13       30.01R HX  95

$$
MOZ051-052-059>065-211700-
...EAST CENTRAL MISSOURI...

CITY           SKY/WX    TMP DP  RH WIND       PRES   REMARKS
ST LOUIS INTL  CLOUDY    84  73  69 SE5       30.04S HX  90

$$
MOZ072>076-082>087-097>100-106>115-211700-
...SOUTH CENTRAL AND SOUTHEAST MISSOURI...

CITY           SKY/WX    TMP DP  RH WIND       PRES   REMARKS
CAPE GIRARDEAU MOSUNNY   86  72  62 MISG      30.06S HX  92
POPLAR BLUFF   SUNNY     86  74  67 SW7       30.05S HX  94
WEST PLAINS    SUNNY     86  69  56 SW7       30.08S HX  90

$$



USA.gov is the U.S. government's official web portal to all federal, state and local government web resources and services.